Location: Bluff Heights
(33.7692°N, 118.1592°W)
Time: 19:43:37
(UTC+00:00)

AO-73 - Pass Details

Date: 25 September 2021
Orbit: 580 x 662 km, 97.6° (Epoch: 27 October)

Event Time Altitude Azimuth Distance (km) Brightness Sun altitude
Rises 11:41:25 0° 28° (NNE) 2,848 ? -25.8°
Reaches altitude 10° 11:44:00 10° 43° (NE) 1,929 ? -25.2°
Maximum altitude 11:47:17 22° 95° (E) 1,295 ? -24.6°
Drops below altitude 10° 11:50:30 10° 147° (SSE) 1,895 ? -24.0°
Sets 11:53:01 0° 163° (SSE) 2,784 ? -23.4°
